Change the Weather History Date:

Monday, October 17, 2011

  Actual Average (K3TH) Record (K3TH)
Temperature  
Mean Temperature 34 °F -  
Max Temperature 42 °F 55 °F 71 °F (2000)
Min Temperature 28 °F 34 °F 25 °F (1996)
Degree Days  
Heating Degree Days 30    
Moisture  
Dew Point 31 °F    
Average Humidity 91    
Maximum Humidity 100    
Minimum Humidity 65    
Precipitation  
Precipitation 0.00 in - - ()
Sea Level Pressure  
Sea Level Pressure 30.31 in    
Wind  
Wind Speed 4 mph (West)    
Max Wind Speed 8 mph    
Max Gust Speed -    
Visibility 9 miles    
Events      
Averages and records for this station are not official NWS values.
T = Trace of Precipitation, MM = Missing Value Source: NWS Daily Summary

Daily Weather History Graph

Daily Weather History Graph

Search for Another Location

Airport or City:

Trip Planner

Search our weather history database for the weather conditions in past years. The results will help you decide how hot, cold, wet, or windy it might be!

Date:

Astronomy

Oct. 17, 2011 Rise Set
Actual Time 7:03 AM PDT 5:51 PM PDT
Civil Twilight 6:32 AM PDT 6:22 PM PDT
Nautical Twilight 5:57 AM PDT 6:57 PM PDT
Astronomical Twilight 5:21 AM PDT 7:33 PM PDT
Moon 9:19 PM PDT (10/17) 12:31 PM PDT (10/17)
Length of Visible Light 11h 49m
Length of Day
10h 47m
Waning Gibbous, 73% of the Moon is Illuminated
Oct 17
Waning Gibbous
Oct 19
Last Quarter
Oct 26
New
Nov 2
First Quarter
Nov 10
Full

Hourly Weather History & Observations

Time (PDT) Temp. Windchill Dew Point Humidity Pressure Visibility Wind Dir Wind Speed Gust Speed Precip Events Conditions
12:53 AM 30.9 °F 26.2 °F 26.1 °F 82% 30.14 in 10.0 mi WNW 4.6 mph - N/A   Clear
1:53 AM 28.9 °F 23.9 °F 27.0 °F 92% 30.17 in 10.0 mi NW 4.6 mph - N/A   Clear
3:02 AM 28.4 °F 23.3 °F 28.4 °F 100% 30.27 in 10.0 mi NW 4.6 mph - N/A   Partly Cloudy
3:16 AM 28.4 °F 22.2 °F 28.4 °F 100% 30.28 in 10.0 mi NW 5.8 mph - N/A   Mostly Cloudy
3:27 AM 30.2 °F 23.4 °F 28.4 °F 93% 30.28 in 1.8 mi NW 6.9 mph - N/A   Overcast
3:35 AM 30.2 °F 23.4 °F 30.2 °F 100% 30.28 in 1.0 mi NW 6.9 mph - N/A   Overcast
3:39 AM 30.2 °F 22.6 °F 30.2 °F 100% 30.28 in 2.0 mi NW 8.1 mph - N/A   Overcast
3:53 AM 30.0 °F 25.2 °F 30.0 °F 100% 30.19 in 7.0 mi Variable 4.6 mph - N/A   Overcast
4:25 AM 30.2 °F 24.3 °F 28.4 °F 93% 30.30 in 9.0 mi Variable 5.8 mph - N/A   Overcast
4:53 AM 30.0 °F 26.5 °F 28.9 °F 96% 30.22 in 9.0 mi NW 3.5 mph - N/A   Overcast
5:03 AM 30.2 °F 26.7 °F 28.4 °F 93% 30.30 in 8.0 mi Variable 3.5 mph - N/A   Overcast
5:19 AM 30.2 °F 25.4 °F 28.4 °F 93% 30.30 in 8.0 mi WSW 4.6 mph - N/A   Scattered Clouds
5:53 AM 30.0 °F 25.2 °F 30.0 °F 100% 30.25 in 8.0 mi WSW 4.6 mph - N/A   Mostly Cloudy
7:53 AM 30.9 °F 26.2 °F 28.9 °F 92% 30.27 in 10.0 mi WSW 4.6 mph - N/A   Mostly Cloudy
8:53 AM 30.9 °F 27.5 °F 30.0 °F 96% 30.29 in 7.0 mi SSW 3.5 mph - N/A   Overcast
9:13 AM 30.2 °F 23.4 °F 30.2 °F 100% 30.36 in 6.0 mi SSW 6.9 mph - N/A   Overcast
9:43 AM 30.2 °F 25.4 °F 30.2 °F 100% 30.36 in 7.0 mi SW 4.6 mph - N/A   Overcast
9:53 AM 32.0 °F 28.7 °F 30.9 °F 96% 30.30 in 8.0 mi SSW 3.5 mph - N/A   Overcast
10:53 AM 35.1 °F - 30.9 °F 85% 30.30 in 10.0 mi Calm Calm - N/A   Overcast
11:38 AM 33.8 °F 30.8 °F 30.2 °F 87% 30.37 in 10.0 mi SW 3.5 mph - N/A   Overcast
11:50 AM 35.6 °F 32.8 °F 32.0 °F 87% 30.37 in 10.0 mi Variable 3.5 mph - N/A   Overcast
11:53 AM 35.1 °F 30.1 °F 32.0 °F 89% 30.31 in 10.0 mi SW 5.8 mph - N/A   Overcast
12:04 PM 35.6 °F 32.8 °F 30.2 °F 81% 30.38 in 10.0 mi SSW 3.5 mph - N/A   Overcast
12:49 PM 37.4 °F - 33.8 °F 87% 30.38 in 10.0 mi Calm Calm - N/A   Overcast
12:53 PM 37.9 °F - 32.0 °F 79% 30.30 in 10.0 mi Calm Calm - N/A   Overcast
1:53 PM 41.0 °F 38.0 °F 30.0 °F 65% 30.29 in 10.0 mi Variable 4.6 mph - N/A   Overcast
2:53 PM 41.0 °F 39.0 °F 30.0 °F 65% 30.28 in 10.0 mi Variable 3.5 mph - N/A   Clear
3:53 PM 41.0 °F - 33.1 °F 73% 30.27 in 10.0 mi Calm Calm - N/A   Clear
4:53 PM 37.9 °F 35.5 °F 33.1 °F 83% 30.30 in 10.0 mi NW 3.5 mph - N/A   Clear
5:53 PM 36.0 °F 33.3 °F 34.0 °F 93% 30.32 in 10.0 mi NW 3.5 mph - N/A   Mostly Cloudy
6:12 PM 35.6 °F 31.7 °F 33.8 °F 93% 30.39 in 10.0 mi NW 4.6 mph - N/A   Overcast
6:36 PM 35.6 °F 32.8 °F 33.8 °F 93% 30.39 in 10.0 mi NW 3.5 mph - N/A   Overcast
6:44 PM 35.6 °F - 33.8 °F 93% 30.39 in 10.0 mi Calm Calm - N/A   Mostly Cloudy
6:53 PM 35.1 °F - 34.0 °F 96% 30.33 in 9.0 mi Calm Calm - N/A   Mostly Cloudy
7:07 PM 35.6 °F 32.8 °F 33.8 °F 93% 30.40 in 9.0 mi NW 3.5 mph - N/A   Partly Cloudy
7:35 PM 35.6 °F - 33.8 °F 93% 30.39 in 9.0 mi Calm Calm - N/A   Mostly Cloudy
7:53 PM 35.1 °F - 34.0 °F 96% 30.33 in 10.0 mi Calm Calm - N/A   Overcast
8:15 PM 33.8 °F - 33.8 °F 100% 30.40 in 10.0 mi Calm Calm - N/A   Scattered Clouds
8:53 PM 35.1 °F 31.0 °F 33.1 °F 92% 30.32 in 10.0 mi WNW 4.6 mph - N/A   Clear
9:53 PM 35.1 °F - 32.0 °F 89% 30.33 in 10.0 mi Calm Calm - N/A   Clear
10:53 PM 36.0 °F - 30.0 °F 79% 30.32 in 10.0 mi Calm Calm - N/A   Clear
11:53 PM 35.1 °F 32.2 °F 30.9 °F 85% 30.33 in 10.0 mi South 3.5 mph - N/A   Clear